Danville, VA

3:40 PM EDT on July 23, 2017 (GMT -0400)
Danville Regional

Weather History for KDAN - January, 2012

Change the Weather History Date:

Thursday, January 26, 2012

  Actual Average Record
Temperature  
Mean Temperature 52 °F 38 °F  
Max Temperature 68 °F 47 °F 77 °F (1950)
Min Temperature 35 °F 30 °F 11 °F (1961)
Degree Days  
Heating Degree Days 13 27  
Month to date heating degree days 632 713  
Since 1 July heating degree days 1993 2195  
Cooling Degree Days 0 0  
Month to date cooling degree days 0 0  
Year to date cooling degree days 0 0  
Moisture  
Dew Point 47 °F    
Average Humidity 78    
Maximum Humidity 92    
Minimum Humidity 63    
Precipitation  
Precipitation 0.00 in 0.11 in 1.93 in (1978)
Month to date precipitation 1.99 2.82  
Year to date precipitation 1.99 2.82  
Snow  
Snow 0.00 in - - ()
Month to date snowfall 0.0  
Since 1 July snowfall 0.0  
Snow Depth 0.00 in    
Sea Level Pressure  
Sea Level Pressure 29.97 in    
Wind  
Wind Speed 4 mph (SSW)    
Max Wind Speed 20 mph    
Max Gust Speed 32 mph    
Visibility 10 miles    
Events      
T = Trace of Precipitation, MM = Missing Value Source: NWS Daily Summary

Daily Weather History Graph

Daily Weather History Graph

Search for Another Location

Airport or City:

Trip Planner

Search our weather history database for the weather conditions in past years. The results will help you decide how hot, cold, wet, or windy it might be!

Date:

Astronomy

Jan. 26, 2012 Rise Set
Actual Time 7:23 AM EST 5:36 PM EST
Civil Twilight 6:56 AM EST 6:03 PM EST
Nautical Twilight 6:24 AM EST 6:35 PM EST
Astronomical Twilight 5:54 AM EST 7:05 PM EST
Moon 8:57 AM EST (1/26) 9:19 PM EST (1/26)
Length of Visible Light 11h 07m
Length of Day
10h 12m
Waxing Crescent, 12% of the Moon is Illuminated
Jan 26
Waxing Crescent
Jan 30
First Quarter
Feb 7
Full
Feb 14
Last Quarter
Feb 21
New

Hourly Weather History & Observations

Time (EST) Temp. Windchill Dew Point Humidity Pressure Visibility Wind Dir Wind Speed Gust Speed Precip Events Conditions
12:53 AM 39.0 °F - 36.0 °F 89% 30.17 in 10.0 mi Calm Calm - N/A   Overcast
1:53 AM 37.9 °F - 35.1 °F 89% 30.15 in 10.0 mi Calm Calm - N/A   Mostly Cloudy
2:53 AM 39.0 °F - 36.0 °F 89% 30.15 in 10.0 mi Calm Calm - N/A   Overcast
3:53 AM 39.0 °F - 36.0 °F 89% 30.14 in 10.0 mi Calm Calm - N/A   Clear
4:53 AM 37.0 °F - 35.1 °F 93% 30.12 in 10.0 mi Calm Calm - N/A   Clear
5:53 AM 37.0 °F - 34.0 °F 89% 30.11 in 10.0 mi Calm Calm - N/A   Clear
6:53 AM 35.1 °F 32.2 °F 33.1 °F 92% 30.10 in 10.0 mi SW 3.5 mph - N/A   Clear
7:53 AM 37.0 °F 34.5 °F 35.1 °F 93% 30.10 in 8.0 mi South 3.5 mph - N/A   Clear
8:53 AM 46.0 °F 44.8 °F 39.0 °F 76% 30.09 in 10.0 mi SSW 3.5 mph - N/A   Clear
9:53 AM 51.1 °F - 42.1 °F 71% 30.07 in 10.0 mi SW 5.8 mph - N/A   Clear
10:13 AM 51.8 °F - 42.8 °F 71% 30.09 in 10.0 mi SW 5.8 mph - N/A   Mostly Cloudy
10:53 AM 54.0 °F - 45.0 °F 72% 30.07 in 10.0 mi SW 4.6 mph - N/A   Overcast
11:53 AM 55.9 °F - 46.0 °F 69% 30.03 in 10.0 mi SW 5.8 mph - N/A   Overcast
12:27 PM 60.8 °F - 48.2 °F 63% 30.00 in 10.0 mi Variable 3.5 mph - N/A   Mostly Cloudy
12:53 PM 62.1 °F - 51.1 °F 67% 29.96 in 10.0 mi SW 12.7 mph 24.2 mph N/A   Mostly Cloudy
1:53 PM 64.0 °F - 53.1 °F 67% 29.93 in 10.0 mi SSW 10.4 mph 20.7 mph N/A   Mostly Cloudy
2:53 PM 64.9 °F - 53.1 °F 65% 29.91 in 10.0 mi SSW 5.8 mph - N/A   Mostly Cloudy
3:53 PM 66.9 °F - 54.0 °F 63% 29.89 in 10.0 mi SSW 8.1 mph - N/A   Partly Cloudy
4:53 PM 64.9 °F - 54.0 °F 68% 29.88 in 10.0 mi SSW 5.8 mph - N/A   Mostly Cloudy
5:53 PM 63.0 °F - 55.0 °F 75% 29.88 in 10.0 mi SW 8.1 mph - N/A   Overcast
6:53 PM 62.1 °F - 55.0 °F 78% 29.88 in 10.0 mi South 4.6 mph - N/A   Overcast
7:53 PM 61.0 °F - 55.0 °F 81% 29.85 in 10.0 mi Calm Calm - N/A   Overcast
8:53 PM 60.1 °F - 55.0 °F 83% 29.81 in 10.0 mi Calm Calm - N/A   Mostly Cloudy
9:53 PM 60.1 °F - 55.9 °F 86% 29.77 in 10.0 mi Variable 4.6 mph - N/A   Mostly Cloudy
10:53 PM 62.1 °F - 57.0 °F 84% 29.73 in 10.0 mi South 9.2 mph 17.3 mph N/A   Mostly Cloudy
11:27 PM 62.6 °F - 57.2 °F 82% 29.74 in 10.0 mi SSW 9.2 mph 20.7 mph N/A   Overcast
11:53 PM 62.1 °F - 57.0 °F 84% 29.70 in 10.0 mi SSW 10.4 mph 21.9 mph N/A   Mostly Cloudy